| time (UTC) | temp F | wind direction | speed MPH | gust MPH | rain 1hr in | rain 24hr in | rain mn in | humidity % | barometer mb |
| 20260906083703 | 58 | 310 | 3.0 | 5.0 | 0.00 | 0.00 | 0.00 | 98 | 992.6 |
| 20260906083204 | 58 | 309 | 3.0 | 5.0 | 0.00 | 0.00 | 0.00 | 98 | 992.6 |
| 20260906082703 | 58 | 310 | 3.0 | 7.0 | 0.00 | 0.00 | 0.00 | 98 | 992.7 |
| 20260906082204 | 58 | 316 | 3.0 | 7.0 | 0.00 | 0.00 | 0.00 | 98 | 992.6 |
| 20260906081703 | 58 | 300 | 5.0 | 8.0 | 0.00 | 0.00 | 0.00 | 98 | 992.5 |
| 20260906081203 | 58 | 312 | 7.0 | 10.0 | 0.00 | 0.00 | 0.00 | 98 | 992.5 |
| 20260906080704 | 58 | 291 | 4.0 | 9.0 | 0.00 | 0.00 | 0.00 | 98 | 992.5 |
| 20260906075704 | 58 | 307 | 2.0 | 6.0 | 0.00 | 0.00 | 0.00 | 98 | 992.6 |
| 20260906074703 | 58 | 337 | 3.0 | 3.0 | 0.00 | 0.00 | 0.00 | 98 | 992.5 |
| 20260906074204 | 58 | 288 | 2.0 | 3.0 | 0.00 | 0.00 | 0.00 | 98 | 992.4 |
| 20260906073703 | 58 | 2 | 3.0 | 6.0 | 0.00 | 0.00 | 0.00 | 98 | 992.4 |
| 20260906073204 | 58 | 2 | 2.0 | 5.0 | 0.00 | 0.00 | 0.00 | 97 | 992.4 |
| 20260906072704 | 58 | 26 | 3.0 | 6.0 | 0.00 | 0.00 | 0.00 | 97 | 992.4 |
| 20260906072204 | 58 | 40 | 3.0 | 7.0 | 0.00 | 0.00 | 0.00 | 97 | 992.3 |
| 20260906071704 | 58 | 36 | 3.0 | 7.0 | 0.00 | 0.00 | 0.00 | 97 | 992.2 |
| 20260906071204 | 58 | 133 | 3.0 | 7.0 | 0.00 | 0.00 | 0.00 | 96 | 992.1 |
| 20260906070703 | 58 | 10 | 3.0 | 7.0 | 0.00 | 0.00 | 0.00 | 97 | 992.1 |
| 20260906070204 | 58 | 39 | 2.0 | 5.0 | 0.00 | 0.00 | 0.00 | 97 | 992.1 |
| 20260906065704 | 58 | 58 | 2.0 | 5.0 | 0.00 | 0.00 | 0.00 | 96 | 992.1 |
| 20260906065204 | 58 | 243 | 2.0 | 5.0 | 0.00 | 0.00 | 0.00 | 96 | 992.1 |
| 20260906064704 | 58 | 96 | 1.0 | 5.0 | 0.00 | 0.00 | 0.00 | 96 | 992.1 |
| 20260906064203 | 58 | 286 | 2.0 | 3.0 | 0.00 | 0.00 | 0.00 | 96 | 992.1 |
| 20260906063704 | 58 | 104 | 2.0 | 7.0 | 0.00 | 0.00 | 0.00 | 94 | 992.1 |
| 20260906063204 | 58 | 205 | 2.0 | 7.0 | 0.00 | 0.00 | 0.00 | 93 | 992.1 |
| 20260906062204 | 59 | 122 | 0.0 | 2.0 | 0.00 | 0.00 | 0.00 | 94 | 992.2 |
| 20260906061704 | 59 | 142 | 1.0 | 2.0 | 0.00 | 0.00 | 0.00 | 93 | 992.2 |
| 20260906061204 | 59 | 152 | 1.0 | 2.0 | 0.00 | 0.00 | 0.00 | 93 | 992.2 |
| 20260906060703 | 59 | 94 | 1.0 | 2.0 | 0.00 | 0.00 | 0.00 | 93 | 992.2 |
| 20260906060204 | 59 | 69 | 1.0 | 2.0 | 0.00 | 0.00 | 0.00 | 93 | 992.2 |
| 20260906055703 | 59 | 145 | 1.0 | 2.0 | 0.00 | 0.00 | 0.00 | 93 | 992.1 |
| 20260906055204 | 59 | 96 | 1.0 | 2.0 | 0.00 | 0.00 | 0.00 | 92 | 992.1 |
| 20260906054704 | 59 | 99 | 1.0 | 3.0 | 0.00 | 0.00 | 0.00 | 92 | 992.2 |
| 20260906054203 | 59 | 133 | 1.0 | 2.0 | 0.00 | 0.00 | 0.00 | 91 | 992.2 |
| 20260906053704 | 59 | 114 | 1.0 | 2.0 | 0.00 | 0.00 | 0.00 | 91 | 992.2 |
| 20260906052703 | 59 | 114 | 1.0 | 2.0 | 0.00 | 0.00 | 0.00 | 92 | 992.3 |
| 20260906051704 | 59 | 133 | 2.0 | 3.0 | 0.00 | 0.00 | 0.00 | 92 | 992.2 |
| 20260906051204 | 59 | 132 | 2.0 | 3.0 | 0.00 | 0.00 | 0.00 | 92 | 992.1 |
| 20260906050703 | 60 | 148 | 2.0 | 3.0 | 0.00 | 0.00 | 0.00 | 92 | 992.2 |
| 20260906050209 | 60 | 146 | 1.0 | 3.0 | 0.00 | 0.00 | 0.00 | 92 | 992.2 |
| 20260906045704 | 60 | 154 | 1.0 | 2.0 | 0.00 | 0.00 | 0.00 | 92 | 992.1 |
| 20260906045204 | 60 | 157 | 1.0 | 2.0 | 0.00 | 0.00 | 0.00 | 92 | 992.2 |
| 20260906044703 | 60 | 146 | 2.0 | 3.0 | 0.00 | 0.00 | 0.00 | 91 | 992.1 |
| 20260906044203 | 60 | 142 | 2.0 | 3.0 | 0.00 | 0.00 | 0.00 | 92 | 992.2 |
| 20260906043704 | 60 | 158 | 2.0 | 3.0 | 0.00 | 0.00 | 0.00 | 92 | 992.2 |
| 20260906043203 | 60 | 180 | 2.0 | 3.0 | 0.00 | 0.00 | 0.00 | 92 | 992.3 |
| 20260906042703 | 60 | 167 | 1.0 | 3.0 | 0.00 | 0.00 | 0.00 | 93 | 992.2 |
| 20260906042204 | 60 | 131 | 1.0 | 2.0 | 0.00 | 0.00 | 0.00 | 94 | 992.2 |
| 20260906041703 | 60 | 72 | 1.0 | 2.0 | 0.00 | 0.00 | 0.00 | 94 | 992.2 |
| 20260906041204 | 60 | 140 | 1.0 | 2.0 | 0.00 | 0.00 | 0.00 | 93 | 992.2 |
| 20260906040203 | 60 | 128 | 1.0 | 1.0 | 0.00 | 0.00 | 0.00 | 93 | 992.3 |
| 20260906035703 | 60 | 139 | 1.0 | 2.0 | 0.00 | 0.00 | 0.00 | 94 | 992.2 |
| 20260906034704 | 60 | 183 | 1.0 | 1.0 | 0.00 | 0.00 | 0.00 | 94 | 992.2 |
| 20260906034203 | 60 | 57 | 1.0 | 2.0 | 0.00 | 0.00 | 0.00 | 93 | 992.1 |
| 20260906033704 | 60 | 149 | 1.0 | 2.0 | 0.00 | 0.00 | 0.00 | 94 | 992.1 |
| 20260906033203 | 60 | 220 | 1.0 | 1.0 | 0.00 | 0.00 | 0.00 | 93 | 992.0 |
| 20260906032704 | 60 | 353 | 1.0 | 1.0 | 0.00 | 0.00 | 0.00 | 91 | 992.0 |
| 20260906032203 | 60 | 109 | 1.0 | 2.0 | 0.00 | 0.00 | 0.00 | 89 | 991.8 |
| 20260906031704 | 61 | 203 | 1.0 | 2.0 | 0.00 | 0.00 | 0.00 | 90 | 991.8 |
| 20260906031203 | 61 | 203 | 2.0 | 3.0 | 0.00 | 0.00 | 0.00 | 89 | 991.8 |
| 20260906030703 | 62 | 199 | 1.0 | 3.0 | 0.00 | 0.00 | 0.00 | 86 | 991.8 |
| 20260906030204 | 63 | 246 | 1.0 | 3.0 | 0.00 | 0.00 | 0.00 | 82 | 991.8 |
| 20260906025204 | 63 | 224 | 2.0 | 3.0 | 0.00 | 0.00 | 0.00 | 78 | 991.8 |
| 20260906024703 | 63 | 284 | 2.0 | 3.0 | 0.00 | 0.00 | 0.00 | 78 | 991.8 |
| 20260906024203 | 63 | 223 | 1.0 | 2.0 | 0.00 | 0.00 | 0.00 | 77 | 991.7 |
| 20260906023704 | 63 | 258 | 2.0 | 3.0 | 0.00 | 0.00 | 0.00 | 77 | 991.6 |
| 20260906022703 | 63 | 257 | 1.0 | 3.0 | 0.00 | 0.00 | 0.00 | 77 | 991.6 |
| 20260906022205 | 64 | 244 | 1.0 | 2.0 | 0.00 | 0.00 | 0.00 | 77 | 991.6 |
| 20260906021704 | 64 | 232 | 2.0 | 3.0 | 0.00 | 0.00 | 0.00 | 76 | 991.7 |
| 20260906021204 | 64 | 224 | 3.0 | 3.0 | 0.00 | 0.00 | 0.00 | 76 | 991.7 |
| 20260906020703 | 64 | 302 | 3.0 | 5.0 | 0.00 | 0.00 | 0.00 | 76 | 991.7 |
| 20260906020203 | 64 | 277 | 2.0 | 3.0 | 0.00 | 0.00 | 0.00 | 77 | 991.6 |
| 20260906015703 | 64 | 270 | 2.0 | 5.0 | 0.00 | 0.00 | 0.00 | 77 | 991.6 |
| 20260906014703 | 64 | 320 | 2.0 | 3.0 | 0.00 | 0.00 | 0.00 | 82 | 991.8 |
| 20260906014204 | 64 | 250 | 3.0 | 3.0 | 0.00 | 0.00 | 0.00 | 81 | 991.8 |
| 20260906013703 | 64 | 267 | 2.0 | 3.0 | 0.00 | 0.00 | 0.00 | 83 | 991.8 |
| 20260906013204 | 64 | 246 | 1.0 | 2.0 | 0.00 | 0.00 | 0.00 | 87 | 991.8 |
| 20260906012703 | 64 | 354 | 1.0 | 2.0 | 0.00 | 0.00 | 0.00 | 87 | 991.8 |
| 20260906012204 | 64 | 279 | 1.0 | 3.0 | 0.00 | 0.00 | 0.00 | 87 | 991.8 |
| 20260906011704 | 64 | 250 | 2.0 | 3.0 | 0.00 | 0.00 | 0.00 | 87 | 991.7 |
| 20260906011204 | 64 | 277 | 3.0 | 6.0 | 0.00 | 0.00 | 0.00 | 87 | 991.7 |
| 20260906010704 | 64 | 216 | 1.0 | 3.0 | 0.00 | 0.00 | 0.00 | 87 | 991.7 |
| 20260906010203 | 64 | 236 | 1.0 | 3.0 | 0.00 | 0.00 | 0.00 | 87 | 991.6 |
| 20260906005704 | 64 | 266 | 2.0 | 3.0 | 0.00 | 0.00 | 0.00 | 87 | 991.6 |
| 20260906005203 | 64 | 262 | 2.0 | 3.0 | 0.00 | 0.00 | 0.00 | 87 | 991.5 |
| 20260906004704 | 64 | 285 | 2.0 | 2.0 | 0.00 | 0.00 | 0.00 | 87 | 991.5 |
| 20260906004203 | 64 | 249 | 2.0 | 2.0 | 0.00 | 0.00 | 0.00 | 87 | 991.5 |
| 20260906003704 | 64 | 295 | 1.0 | 3.0 | 0.00 | 0.00 | 0.00 | 87 | 991.4 |
| 20260906003203 | 64 | 246 | 2.0 | 2.0 | 0.00 | 0.00 | 0.00 | 86 | 991.3 |
| 20260906002203 | 64 | 268 | 1.0 | 2.0 | 0.00 | 0.00 | 0.00 | 87 | 991.2 |
| 20260906001704 | 64 | 234 | 2.0 | 2.0 | 0.00 | 0.00 | 0.00 | 86 | 991.2 |
| 20260906001204 | 64 | 234 | 2.0 | 5.0 | 0.00 | 0.00 | 0.00 | 86 | 991.2 |
| 20260906000704 | 64 | 249 | 2.0 | 3.0 | 0.00 | 0.00 | 0.00 | 86 | 991.2 |
| 20260906000204 | 65 | 243 | 2.0 | 3.0 | 0.00 | 0.00 | 0.00 | 86 | 991.2 |
| 20260905235704 | 65 | 262 | 2.0 | 3.0 | 0.00 | 0.00 | 0.00 | 85 | 991.1 |
| 20260905235204 | 65 | 272 | 2.0 | 6.0 | 0.00 | 0.00 | 0.00 | 85 | 991.0 |
| 20260905234704 | 65 | 272 | 2.0 | 7.0 | 0.00 | 0.00 | 0.00 | 84 | 991.1 |
| 20260905234203 | 65 | 295 | 2.0 | 3.0 | 0.00 | 0.00 | 0.00 | 84 | 991.0 |
| 20260905233703 | 65 | 283 | 2.0 | 3.0 | 0.00 | 0.00 | 0.00 | 84 | 990.9 |
| 20260905232705 | 65 | 306 | 2.0 | 3.0 | 0.00 | 0.00 | 0.00 | 83 | 990.7 |
| 20260905232203 | 66 | 297 | 3.0 | 9.0 | 0.00 | 0.00 | 0.00 | 83 | 990.8 |
| 20260905231704 | 66 | 270 | 2.0 | 5.0 | 0.00 | 0.00 | 0.00 | 83 | 990.7 |
| 20260905231204 | 66 | 273 | 2.0 | 7.0 | 0.00 | 0.00 | 0.00 | 82 | 990.6 |
| 20260905230704 | 66 | 324 | 3.0 | 8.0 | 0.00 | 0.00 | 0.00 | 82 | 990.7 |
| 20260905230203 | 67 | 292 | 3.0 | 7.0 | 0.00 | 0.00 | 0.00 | 82 | 990.7 |
| 20260905225704 | 67 | 316 | 3.0 | 7.0 | 0.00 | 0.00 | 0.00 | 81 | 990.7 |
| 20260905225204 | 67 | 306 | 2.0 | 7.0 | 0.00 | 0.00 | 0.00 | 80 | 990.6 |
| 20260905224704 | 67 | 286 | 2.0 | 7.0 | 0.00 | 0.00 | 0.00 | 80 | 990.7 |
| 20260905224204 | 67 | 304 | 2.0 | 5.0 | 0.00 | 0.00 | 0.00 | 79 | 990.6 |
| 20260905223704 | 67 | 293 | 3.0 | 6.0 | 0.00 | 0.00 | 0.00 | 80 | 990.6 |
| 20260905223204 | 68 | 283 | 3.0 | 8.0 | 0.00 | 0.00 | 0.00 | 79 | 990.6 |
| 20260905222704 | 68 | 289 | 3.0 | 6.0 | 0.00 | 0.00 | 0.00 | 78 | 990.6 |
| 20260905221704 | 68 | 317 | 2.0 | 8.0 | 0.00 | 0.00 | 0.00 | 78 | 990.5 |
| 20260905221204 | 68 | 299 | 2.0 | 8.0 | 0.00 | 0.00 | 0.00 | 77 | 990.5 |
| 20260905220203 | 68 | 273 | 2.0 | 5.0 | 0.00 | 0.00 | 0.00 | 77 | 990.4 |
| 20260905215704 | 68 | 286 | 3.0 | 6.0 | 0.00 | 0.00 | 0.00 | 77 | 990.4 |
| 20260905215205 | 69 | 284 | 2.0 | 5.0 | 0.00 | 0.00 | 0.00 | 76 | 990.4 |
| 20260905214204 | 69 | 289 | 3.0 | 5.0 | 0.00 | 0.00 | 0.00 | 76 | 990.4 |
| 20260905213704 | 69 | 330 | 1.0 | 5.0 | 0.00 | 0.00 | 0.00 | 76 | 990.4 |
| 20260905212704 | 69 | 282 | 2.0 | 7.0 | 0.00 | 0.00 | 0.00 | 76 | 990.4 |
| 20260905212204 | 69 | 311 | 2.0 | 7.0 | 0.00 | 0.00 | 0.00 | 76 | 990.3 |
| 20260905211204 | 69 | 321 | 2.0 | 3.0 | 0.00 | 0.00 | 0.00 | 76 | 990.2 |
| 20260905210704 | 69 | 304 | 2.0 | 3.0 | 0.00 | 0.00 | 0.00 | 75 | 990.3 |
| 20260905210203 | 69 | 267 | 1.0 | 3.0 | 0.00 | 0.00 | 0.00 | 75 | 990.2 |
| 20260905205204 | 70 | 260 | 3.0 | 7.0 | 0.00 | 0.00 | 0.00 | 74 | 990.1 |
| 20260905204704 | 70 | 309 | 2.0 | 7.0 | 0.00 | 0.00 | 0.00 | 74 | 990.1 |
| 20260905204203 | 70 | 298 | 2.0 | 8.0 | 0.00 | 0.00 | 0.00 | 73 | 990.0 |
| 20260905203203 | 70 | 315 | 2.0 | 9.0 | 0.00 | 0.00 | 0.00 | 73 | 990.0 |
| 20260905202704 | 71 | 240 | 3.0 | 9.0 | 0.00 | 0.00 | 0.00 | 72 | 990.1 |
| 20260905201704 | 70 | 331 | 2.0 | 7.0 | 0.00 | 0.00 | 0.00 | 76 | 990.0 |
| 20260905201203 | 70 | 287 | 2.0 | 7.0 | 0.00 | 0.00 | 0.00 | 77 | 990.0 |
| 20260905200704 | 70 | 303 | 2.0 | 6.0 | 0.00 | 0.00 | 0.00 | 77 | 990.0 |
| 20260905200204 | 70 | 349 | 1.0 | 3.0 | 0.00 | 0.00 | 0.00 | 77 | 990.0 |
| 20260905195704 | 70 | 272 | 2.0 | 3.0 | 0.00 | 0.00 | 0.00 | 76 | 990.0 |
| 20260905195204 | 70 | 359 | 2.0 | 6.0 | 0.00 | 0.00 | 0.00 | 77 | 990.0 |
| 20260905194704 | 70 | 297 | 2.0 | 5.0 | 0.00 | 0.00 | 0.00 | 77 | 990.0 |
| 20260905194203 | 70 | 272 | 2.0 | 6.0 | 0.00 | 0.00 | 0.00 | 77 | 990.0 |
| 20260905193704 | 70 | 285 | 2.0 | 7.0 | 0.00 | 0.00 | 0.00 | 76 | 990.0 |
| 20260905193203 | 71 | 257 | 3.0 | 7.0 | 0.00 | 0.00 | 0.00 | 74 | 990.0 |
| 20260905192703 | 72 | 256 | 2.0 | 5.0 | 0.00 | 0.00 | 0.00 | 71 | 989.9 |
| 20260905191704 | 71 | 325 | 3.0 | 6.0 | 0.00 | 0.00 | 0.00 | 73 | 989.9 |
| 20260905190204 | 72 | 232 | 2.0 | 5.0 | 0.00 | 0.00 | 0.00 | 72 | 989.9 |
| 20260905185704 | 72 | 247 | 4.0 | 7.0 | 0.00 | 0.00 | 0.00 | 71 | 989.9 |
| 20260905185204 | 69 | 277 | 4.0 | 7.0 | 0.00 | 0.00 | 0.00 | 75 | 989.9 |
| 20260905184704 | 68 | 281 | 3.0 | 6.0 | 0.00 | 0.00 | 0.00 | 80 | 989.9 |
| 20260905184204 | 68 | 320 | 4.0 | 8.0 | 0.00 | 0.00 | 0.00 | 81 | 989.9 |
| 20260905183704 | 68 | 8 | 4.0 | 16.0 | 0.00 | 0.00 | 0.00 | 83 | 989.9 |
| 20260905183203 | 69 | 1 | 7.0 | 16.0 | 0.00 | 0.00 | 0.00 | 80 | 989.9 |
| 20260905182204 | 69 | 319 | 5.0 | 15.0 | 0.00 | 0.00 | 0.00 | 76 | 989.8 |
| 20260905181703 | 69 | 267 | 3.0 | 17.0 | 0.00 | 0.00 | 0.00 | 78 | 989.7 |
| 20260905181203 | 69 | 248 | 5.0 | 16.0 | 0.00 | 0.00 | 0.00 | 81 | 989.7 |
| 20260905180704 | 70 | 4 | 4.0 | 9.0 | 0.00 | 0.00 | 0.00 | 80 | 989.7 |
| 20260905180204 | 71 | 266 | 3.0 | 8.0 | 0.00 | 0.00 | 0.00 | 75 | 989.7 |
| 20260905175704 | 72 | 311 | 3.0 | 8.0 | 0.00 | 0.00 | 0.00 | 70 | 989.8 |
| 20260905175203 | 73 | 282 | 2.0 | 9.0 | 0.00 | 0.00 | 0.00 | 70 | 989.7 |
| 20260905174704 | 73 | 249 | 3.0 | 15.0 | 0.00 | 0.00 | 0.00 | 71 | 989.7 |
| 20260905174204 | 73 | 265 | 2.0 | 7.0 | 0.00 | 0.00 | 0.00 | 68 | 989.7 |
| 20260905173704 | 72 | 275 | 3.0 | 17.0 | 0.00 | 0.00 | 0.00 | 70 | 989.7 |
| 20260905173203 | 72 | 240 | 3.0 | 10.0 | 0.00 | 0.00 | 0.00 | 72 | 989.7 |
| 20260905172703 | 73 | 244 | 3.0 | 9.0 | 0.00 | 0.00 | 0.00 | 71 | 989.7 |
| 20260905172203 | 74 | 265 | 6.0 | 17.0 | 0.00 | 0.00 | 0.00 | 69 | 989.8 |
| 20260905171703 | 75 | 296 | 3.0 | 7.0 | 0.00 | 0.00 | 0.00 | 68 | 989.7 |
| 20260905171204 | 74 | 248 | 2.0 | 12.0 | 0.00 | 0.00 | 0.00 | 69 | 989.7 |
| 20260905170704 | 74 | 254 | 2.0 | 14.0 | 0.00 | 0.00 | 0.00 | 68 | 989.7 |
| 20260905170203 | 73 | 27 | 6.0 | 13.0 | 0.00 | 0.00 | 0.00 | 69 | 989.7 |
| 20260905165703 | 73 | 20 | 5.0 | 14.0 | 0.00 | 0.00 | 0.00 | 69 | 989.8 |
| 20260905165204 | 71 | 20 | 6.0 | 17.0 | 0.00 | 0.00 | 0.00 | 72 | 989.8 |
| 20260905164203 | 71 | 18 | 6.0 | 14.0 | 0.00 | 0.00 | 0.00 | 75 | 989.9 |
| 20260905163704 | 70 | 24 | 8.0 | 17.0 | 0.00 | 0.00 | 0.00 | 74 | 989.9 |
| 20260905163204 | 70 | 15 | 6.0 | 16.0 | 0.00 | 0.00 | 0.00 | 74 | 990.0 |
| 20260905162704 | 70 | 353 | 6.0 | 16.0 | 0.00 | 0.00 | 0.00 | 78 | 990.0 |
| 20260905162204 | 70 | 351 | 6.0 | 16.0 | 0.00 | 0.00 | 0.00 | 77 | 990.0 |
| 20260905161703 | 70 | 333 | 6.0 | 13.0 | 0.00 | 0.00 | 0.00 | 77 | 990.1 |
| 20260905161204 | 70 | 319 | 7.0 | 16.0 | 0.00 | 0.00 | 0.00 | 77 | 990.1 |
| 20260905160703 | 69 | 306 | 7.0 | 18.0 | 0.00 | 0.00 | 0.00 | 77 | 990.1 |
| 20260905160204 | 69 | 313 | 6.0 | 16.0 | 0.00 | 0.00 | 0.00 | 78 | 990.1 |
| 20260905155703 | 69 | 297 | 7.0 | 20.0 | 0.00 | 0.00 | 0.00 | 78 | 990.0 |
| 20260905155204 | 69 | 289 | 5.0 | 21.0 | 0.00 | 0.00 | 0.00 | 78 | 990.1 |
| 20260905154703 | 69 | 297 | 5.0 | 10.0 | 0.00 | 0.00 | 0.00 | 78 | 990.2 |
| 20260905154204 | 69 | 261 | 5.0 | 17.0 | 0.00 | 0.00 | 0.00 | 78 | 990.2 |
| 20260905153704 | 69 | 261 | 10.0 | 17.0 | 0.00 | 0.00 | 0.00 | 78 | 990.1 |
| 20260905153204 | 69 | 246 | 6.0 | 13.0 | 0.00 | 0.00 | 0.00 | 78 | 990.2 |
| 20260905152703 | 68 | 289 | 5.0 | 16.0 | 0.00 | 0.00 | 0.00 | 79 | 990.2 |
| 20260905152204 | 68 | 282 | 4.0 | 13.0 | 0.00 | 0.00 | 0.00 | 79 | 990.3 |
| 20260905151703 | 68 | 308 | 6.0 | 18.0 | 0.00 | 0.00 | 0.00 | 81 | 990.4 |
| 20260905150704 | 68 | 269 | 6.0 | 14.0 | 0.00 | 0.00 | 0.00 | 81 | 990.2 |
| 20260905150203 | 68 | 281 | 7.0 | 22.0 | 0.00 | 0.00 | 0.00 | 82 | 990.2 |
| 20260905145703 | 68 | 311 | 5.0 | 10.0 | 0.00 | 0.00 | 0.00 | 82 | 990.1 |
| 20260905145203 | 68 | 260 | 4.0 | 12.0 | 0.00 | 0.00 | 0.00 | 81 | 990.0 |
| 20260905144704 | 67 | 290 | 6.0 | 13.0 | 0.00 | 0.00 | 0.00 | 84 | 990.0 |
| 20260905144204 | 67 | 291 | 6.0 | 16.0 | 0.00 | 0.00 | 0.00 | 84 | 990.0 |
| 20260905143704 | 67 | 270 | 7.0 | 20.0 | 0.00 | 0.00 | 0.00 | 83 | 990.0 |
| 20260905142703 | 67 | 310 | 10.0 | 20.0 | 0.00 | 0.00 | 0.00 | 86 | 990.1 |
| 20260905142203 | 67 | 271 | 8.0 | 18.0 | 0.00 | 0.00 | 0.00 | 84 | 990.2 |
| 20260905141704 | 67 | 256 | 7.0 | 16.0 | 0.00 | 0.00 | 0.00 | 86 | 990.2 |
| 20260905141205 | 67 | 284 | 7.0 | 20.0 | 0.00 | 0.00 | 0.00 | 84 | 990.2 |
| 20260905140703 | 67 | 288 | 6.0 | 20.0 | 0.00 | 0.00 | 0.00 | 84 | 990.2 |
| 20260905140204 | 66 | 298 | 6.0 | 20.0 | 0.00 | 0.00 | 0.00 | 84 | 990.2 |
| 20260905135704 | 66 | 0 | 7.0 | 22.0 | 0.00 | 0.00 | 0.00 | 84 | 990.1 |
| 20260905135204 | 66 | 293 | 6.0 | 24.0 | 0.00 | 0.00 | 0.00 | 85 | 990.1 |
| 20260905134703 | 65 | 264 | 5.0 | 10.0 | 0.00 | 0.00 | 0.00 | 85 | 990.2 |
| 20260905134204 | 65 | 270 | 6.0 | 10.0 | 0.00 | 0.00 | 0.00 | 86 | 990.1 |
| 20260905133703 | 65 | 274 | 6.0 | 9.0 | 0.00 | 0.00 | 0.00 | 85 | 990.1 |
| 20260905133204 | 65 | 339 | 4.0 | 9.0 | 0.00 | 0.00 | 0.00 | 87 | 990.0 |
| 20260905132703 | 65 | 312 | 5.0 | 12.0 | 0.00 | 0.00 | 0.00 | 87 | 990.0 |
| 20260905132204 | 64 | 231 | 6.0 | 16.0 | 0.00 | 0.00 | 0.00 | 87 | 989.9 |
| 20260905131703 | 64 | 268 | 5.0 | 12.0 | 0.00 | 0.00 | 0.00 | 88 | 989.9 |
| 20260905131204 | 64 | 230 | 5.0 | 8.0 | 0.00 | 0.00 | 0.00 | 88 | 989.9 |
| 20260905130703 | 64 | 243 | 3.0 | 7.0 | 0.00 | 0.00 | 0.00 | 89 | 989.9 |
| 20260905130203 | 64 | 235 | 2.0 | 9.0 | 0.00 | 0.00 | 0.00 | 89 | 989.9 |
| 20260905125703 | 64 | 230 | 5.0 | 12.0 | 0.00 | 0.00 | 0.00 | 89 | 989.9 |
| 20260905125204 | 64 | 219 | 3.0 | 8.0 | 0.00 | 0.00 | 0.00 | 89 | 989.8 |
| 20260905124703 | 64 | 226 | 4.0 | 8.0 | 0.00 | 0.00 | 0.00 | 89 | 989.7 |
| 20260905124204 | 64 | 262 | 4.0 | 8.0 | 0.00 | 0.00 | 0.00 | 89 | 989.7 |
| 20260905123203 | 63 | 232 | 3.0 | 9.0 | 0.00 | 0.00 | 0.00 | 90 | 989.8 |
| 20260905122704 | 63 | 233 | 2.0 | 8.0 | 0.00 | 0.00 | 0.00 | 91 | 989.7 |
| 20260905122203 | 62 | 66 | 3.0 | 5.0 | 0.00 | 0.00 | 0.00 | 93 | 989.6 |
| 20260905121703 | 62 | 59 | 3.0 | 5.0 | 0.00 | 0.00 | 0.00 | 93 | 989.6 |
| 20260905121203 | 61 | 57 | 2.0 | 3.0 | 0.00 | 0.00 | 0.00 | 94 | 989.6 |
| 20260905120704 | 61 | 171 | 2.0 | 6.0 | 0.00 | 0.00 | 0.00 | 95 | 989.5 |
| 20260905120204 | 61 | 184 | 1.0 | 9.0 | 0.00 | 0.00 | 0.00 | 95 | 989.5 |
| 20260905115704 | 60 | 223 | 1.0 | 2.0 | 0.00 | 0.00 | 0.00 | 95 | 989.5 |
| 20260905115203 | 60 | 209 | 1.0 | 3.0 | 0.00 | 0.00 | 0.00 | 95 | 989.5 |
| 20260905114704 | 60 | 217 | 1.0 | 2.0 | 0.00 | 0.00 | 0.00 | 96 | 989.5 |
| 20260905114203 | 60 | 173 | 1.0 | 2.0 | 0.00 | 0.00 | 0.00 | 96 | 989.4 |
| 20260905112704 | 59 | 166 | 1.0 | 2.0 | 0.00 | 0.00 | 0.00 | 98 | 989.4 |
| 20260905111704 | 59 | 153 | 1.0 | 3.0 | 0.00 | 0.00 | 0.00 | 97 | 989.3 |
| 20260905111205 | 58 | 145 | 2.0 | 3.0 | 0.00 | 0.00 | 0.00 | 97 | 989.3 |
| 20260905110703 | 58 | 157 | 1.0 | 2.0 | 0.00 | 0.00 | 0.00 | 98 | 989.2 |
| 20260905110205 | 58 | 143 | 1.0 | 2.0 | 0.00 | 0.00 | 0.00 | 98 | 989.1 |
| 20260905105203 | 58 | 205 | 1.0 | 2.0 | 0.00 | 0.00 | 0.00 | 98 | 989.1 |
| 20260905104203 | 58 | 113 | 1.0 | 2.0 | 0.00 | 0.00 | 0.00 | 97 | 989.0 |
| 20260905103204 | 58 | 83 | 2.0 | 3.0 | 0.00 | 0.00 | 0.00 | 98 | 988.9 |
| 20260905102703 | 58 | 87 | 1.0 | 2.0 | 0.00 | 0.00 | 0.00 | 98 | 988.9 |
| 20260905102203 | 58 | 147 | 2.0 | 5.0 | 0.00 | 0.00 | 0.00 | 98 | 988.9 |
| 20260905101704 | 58 | 113 | 1.0 | 2.0 | 0.00 | 0.00 | 0.00 | 98 | 988.9 |
| 20260905101204 | 58 | 113 | 1.0 | 2.0 | 0.00 | 0.00 | 0.00 | 98 | 988.9 |
| 20260905100704 | 58 | 131 | 2.0 | 3.0 | 0.00 | 0.00 | 0.00 | 98 | 988.9 |
| 20260905100204 | 58 | 133 | 1.0 | 2.0 | 0.00 | 0.00 | 0.00 | 97 | 988.9 |
| 20260905095203 | 58 | 161 | 1.0 | 2.0 | 0.00 | 0.00 | 0.00 | 98 | 988.9 |
| 20260905094703 | 58 | 123 | 1.0 | 2.0 | 0.00 | 0.00 | 0.00 | 98 | 988.9 |
| 20260905094203 | 58 | 152 | 1.0 | 3.0 | 0.00 | 0.00 | 0.00 | 98 | 988.8 |
| 20260905093704 | 57 | 186 | 2.0 | 2.0 | 0.00 | 0.00 | 0.00 | 98 | 988.7 |
| 20260905093203 | 57 | 217 | 1.0 | 2.0 | 0.00 | 0.00 | 0.00 | 98 | 988.7 |
| 20260905092203 | 57 | 158 | 1.0 | 2.0 | 0.00 | 0.00 | 0.00 | 99 | 988.7 |
| 20260905091704 | 57 | 124 | 1.0 | 2.0 | 0.00 | 0.00 | 0.00 | 99 | 988.7 |
| 20260905091203 | 57 | 188 | 1.0 | 3.0 | 0.00 | 0.00 | 0.00 | 99 | 988.7 |
| 20260905090703 | 57 | 85 | 1.0 | 2.0 | 0.00 | 0.00 | 0.00 | 99 | 988.7 |
| 20260905090204 | 56 | 79 | 2.0 | 3.0 | 0.00 | 0.00 | 0.00 | 99 | 988.7 |
| 20260905085704 | 56 | 160 | 1.0 | 3.0 | 0.00 | 0.00 | 0.00 | 99 | 988.7 |
| 20260905085203 | 56 | 222 | 1.0 | 2.0 | 0.00 | 0.00 | 0.00 | 99 | 988.6 |
| 20260905084704 | 56 | 172 | 1.0 | 2.0 | 0.00 | 0.00 | 0.00 | 98 | 988.6 |
| 20260905084205 | 56 | 198 | 1.0 | 3.0 | 0.00 | 0.00 | 0.00 | 98 | 988.6 |